Location: Carnetin
(48.9010°N, 2.7059°E)
Time: 10:54:51
(UTC+00:00)

Cosmos 2333 - Pass Details

Date: 24 October 2021
Orbit: 829 x 866 km, 70.9° (Epoch: 01 December)

Event Time Altitude Azimuth Distance (km) Brightness Sun altitude
Rises 19:31:48 0° 209° (SSW) 3,372 7.5 -28.4°
Reaches altitude 10° 19:34:13 10° 211° (SSW) 2,447 6.7 -28.7°
Enters shadow 19:38:58 64° 227° (SW) 929 4.4 -29.5°
